owner,sensor,date,latitude,longitude,vertical_datum,wind_speed,wind_to_direction,wind_speed_of_gust,qcFlag 
DISL,ioos:station:DISL:CATA:1,2011-06-01T00:00:00Z,30.3085,-88.1395,0.0,4.57,232.2,-9999.0,'1111122,1111122,1111122' 
DISL,ioos:station:DISL:CATA:1,2011-06-01T00:30:00Z,30.3085,-88.1395,0.0,4.63,234.6,-9999.0,'1111122,1111122,1111122' 
DISL,ioos:station:DISL:CATA:1,2011-06-01T01:00:00Z,30.3085,-88.1395,0.0,4.72,241.3,-9999.0,'1111122,1111122,1111122' 
DISL,ioos:station:DISL:CATA:1,2011-06-01T01:30:00Z,30.3085,-88.1395,0.0,4.66,241.1,-9999.0,'1111122,1111122,1111122' 
DISL,ioos:station:DISL:CATA:1,2011-06-01T02:00:00Z,30.3085,-88.1395,0.0,3.7,250.2,-9999.0,'1111122,1111122,1111122' 
DISL,ioos:station:DISL:CATA:1,2011-06-01T02:30:00Z,30.3085,-88.1395,0.0,4.02,249.1,-9999.0,'1111122,1111122,1111122' 
DISL,ioos:station:DISL:CATA:1,2011-06-01T03:00:00Z,30.3085,-88.1395,0.0,4.18,258.7,-9999.0,'1111122,1111122,1111122' 
DISL,ioos:station:DISL:CATA:1,2011-06-01T03:30:00Z,30.3085,-88.1395,0.0,3.67,267.7,-9999.0,'1111122,1111122,1111122' 
DISL,ioos:station:DISL:CATA:1,2011-06-01T04:00:00Z,30.3085,-88.1395,0.0,3.69,269.4,-9999.0,'1111122,1111122,1111122' 
DISL,ioos:station:DISL:CATA:1,2011-06-01T04:30:00Z,30.3085,-88.1395,0.0,3.35,274.0,-9999.0,'1111122,1111122,1111122' 
DISL,ioos:station:DISL:CATA:1,2011-06-01T05:00:00Z,30.3085,-88.1395,0.0,2.71,239.7,-9999.0,'1111122,1111122,1111122' 
DISL,ioos:station:DISL:CATA:1,2011-06-01T05:30:00Z,30.3085,-88.1395,0.0,3.57,240.4,-9999.0,'1111122,1111122,1111122' 
DISL,ioos:station:DISL:CATA:1,2011-06-01T06:00:00Z,30.3085,-88.1395,0.0,3.91,228.7,-9999.0,'1111122,1111122,1111122' 
DISL,ioos:station:DISL:CATA:1,2011-06-01T06:30:00Z,30.3085,-88.1395,0.0,4.43,231.2,-9999.0,'1111122,1111122,1111122' 
DISL,ioos:station:DISL:CATA:1,2011-06-01T07:00:00Z,30.3085,-88.1395,0.0,4.89,240.3,-9999.0,'1111122,1111122,1111122' 
DISL,ioos:station:DISL:CATA:1,2011-06-01T07:30:00Z,30.3085,-88.1395,0.0,4.14,245.5,-9999.0,'1111122,1111122,1111122' 
DISL,ioos:station:DISL:CATA:1,2011-06-01T08:00:00Z,30.3085,-88.1395,0.0,4.22,245.3,-9999.0,'1111122,1111122,1111122' 
DISL,ioos:station:DISL:CATA:1,2011-06-01T08:30:00Z,30.3085,-88.1395,0.0,3.69,248.4,-9999.0,'1111122,1111122,1111122' 
DISL,ioos:station:DISL:CATA:1,2011-06-01T09:00:00Z,30.3085,-88.1395,0.0,3.3,251.3,-9999.0,'1111122,1111122,1111122' 
DISL,ioos:station:DISL:CATA:1,2011-06-01T09:30:00Z,30.3085,-88.1395,0.0,2.67,283.1,-9999.0,'1111122,1111122,1111122' 
DISL,ioos:station:DISL:CATA:1,2011-06-01T10:00:00Z,30.3085,-88.1395,0.0,2.26,338.4,-9999.0,'1111122,1111122,1111122' 
DISL,ioos:station:DISL:CATA:1,2011-06-01T10:30:00Z,30.3085,-88.1395,0.0,1.39,339.7,-9999.0,'1111122,1111122,1111122' 
DISL,ioos:station:DISL:CATA:1,2011-06-01T11:00:00Z,30.3085,-88.1395,0.0,2.37,330.8,-9999.0,'1111122,1111122,1111122' 
DISL,ioos:station:DISL:CATA:1,2011-06-01T11:30:00Z,30.3085,-88.1395,0.0,2.52,352.2,-9999.0,'1111122,1111122,1111122' 
DISL,ioos:station:DISL:CATA:1,2011-06-01T12:00:00Z,30.3085,-88.1395,0.0,3.08,1.651,-9999.0,'1111122,1111122,1111122' 
DISL,ioos:station:DISL:CATA:1,2011-06-01T12:30:00Z,30.3085,-88.1395,0.0,2.67,358.6,-9999.0,'1111122,1111122,1111122' 
DISL,ioos:station:DISL:CATA:1,2011-06-01T13:00:00Z,30.3085,-88.1395,0.0,2.58,355.5,-9999.0,'1111122,1111122,1111122' 
DISL,ioos:station:DISL:CATA:1,2011-06-01T13:30:00Z,30.3085,-88.1395,0.0,3.01,356.5,-9999.0,'1111122,1111122,1111122' 
DISL,ioos:station:DISL:CATA:1,2011-06-01T14:00:00Z,30.3085,-88.1395,0.0,2.04,43.35,-9999.0,'1111122,1111122,1111122' 
DISL,ioos:station:DISL:CATA:1,2011-06-01T14:30:00Z,30.3085,-88.1395,0.0,3.02,43.29,-9999.0,'1111122,1111122,1111122' 
DISL,ioos:station:DISL:CATA:1,2011-06-01T15:00:00Z,30.3085,-88.1395,0.0,2.96,45.71,-9999.0,'1111122,1111122,1111122' 
DISL,ioos:station:DISL:CATA:1,2011-06-01T15:30:00Z,30.3085,-88.1395,0.0,3.42,44.62,-9999.0,'1111122,1111122,1111122' 
DISL,ioos:station:DISL:CATA:1,2011-06-01T16:00:00Z,30.3085,-88.1395,0.0,3.69,41.05,-9999.0,'1111122,1111122,1111122' 
DISL,ioos:station:DISL:CATA:1,2011-06-01T16:30:00Z,30.3085,-88.1395,0.0,3.18,38.16,-9999.0,'1111122,1111122,1111122' 
DISL,ioos:station:DISL:CATA:1,2011-06-01T17:00:00Z,30.3085,-88.1395,0.0,2.62,45.49,-9999.0,'1111122,1111122,1111122' 
DISL,ioos:station:DISL:CATA:1,2011-06-01T17:30:00Z,30.3085,-88.1395,0.0,3.08,46.03,-9999.0,'1111122,1111122,1111122' 
DISL,ioos:station:DISL:CATA:1,2011-06-01T18:00:00Z,30.3085,-88.1395,0.0,5.5,40.11,-9999.0,'1111122,1111122,1111122' 
DISL,ioos:station:DISL:CATA:1,2011-06-01T18:30:00Z,30.3085,-88.1395,0.0,5.61,36.29,-9999.0,'1111122,1111122,1111122' 
DISL,ioos:station:DISL:CATA:1,2011-06-01T19:00:00Z,30.3085,-88.1395,0.0,5.39,37.96,-9999.0,'1111122,1111122,1111122' 
DISL,ioos:station:DISL:CATA:1,2011-06-01T19:30:00Z,30.3085,-88.1395,0.0,4.93,28.76,-9999.0,'1111122,1111122,1111122' 
DISL,ioos:station:DISL:CATA:1,2011-06-01T20:00:00Z,30.3085,-88.1395,0.0,6.25,33.64,-9999.0,'1111122,1111122,1111122' 
DISL,ioos:station:DISL:CATA:1,2011-06-01T20:30:00Z,30.3085,-88.1395,0.0,6.17,33.15,-9999.0,'1111122,1111122,1111122' 
DISL,ioos:station:DISL:CATA:1,2011-06-01T21:00:00Z,30.3085,-88.1395,0.0,6.09,37.35,-9999.0,'1111122,1111122,1111122' 
DISL,ioos:station:DISL:CATA:1,2011-06-01T21:30:00Z,30.3085,-88.1395,0.0,6.16,25.41,-9999.0,'1111122,1111122,1111122' 
DISL,ioos:station:DISL:CATA:1,2011-06-01T22:00:00Z,30.3085,-88.1395,0.0,5.89,31.0,-9999.0,'1111122,1111122,1111122' 
DISL,ioos:station:DISL:CATA:1,2011-06-01T22:30:00Z,30.3085,-88.1395,0.0,5.49,22.41,-9999.0,'1111122,1111122,1111122' 
DISL,ioos:station:DISL:CATA:1,2011-06-01T23:00:00Z,30.3085,-88.1395,0.0,5.11,19.44,-9999.0,'1111122,1111122,1111122' 
DISL,ioos:station:DISL:CATA:1,2011-06-01T23:30:00Z,30.3085,-88.1395,0.0,4.9,15.68,-9999.0,'1111122,1111122,1111122' 
DISL,ioos:station:DISL:CATA:1,2011-06-02T00:00:00Z,30.3085,-88.1395,0.0,4.07,14.57,-9999.0,'1111122,1111122,1111122' 
DISL,ioos:station:DISL:CATA:1,2011-06-02T00:30:00Z,30.3085,-88.1395,0.0,4.03,11.99,-9999.0,'1111122,1111122,1111122' 
DISL,ioos:station:DISL:CATA:1,2011-06-02T01:00:00Z,30.3085,-88.1395,0.0,3.29,2.453,-9999.0,'1111122,1111122,1111122' 
DISL,ioos:station:DISL:CATA:1,2011-06-02T01:30:00Z,30.3085,-88.1395,0.0,3.65,0.392,-9999.0,'1111122,1111122,1111122' 
DISL,ioos:station:DISL:CATA:1,2011-06-02T02:00:00Z,30.3085,-88.1395,0.0,3.2,355.8,-9999.0,'1111122,1111122,1111122' 
DISL,ioos:station:DISL:CATA:1,2011-06-02T02:30:00Z,30.3085,-88.1395,0.0,3.13,6.698,-9999.0,'1111122,1111122,1111122' 
DISL,ioos:station:DISL:CATA:1,2011-06-02T03:00:00Z,30.3085,-88.1395,0.0,3.37,358.1,-9999.0,'1111122,1111122,1111122' 
DISL,ioos:station:DISL:CATA:1,2011-06-02T03:30:00Z,30.3085,-88.1395,0.0,3.7,354.8,-9999.0,'1111122,1111122,1111122' 
DISL,ioos:station:DISL:CATA:1,2011-06-02T04:00:00Z,30.3085,-88.1395,0.0,4.39,348.2,-9999.0,'1111122,1111122,1111122' 
DISL,ioos:station:DISL:CATA:1,2011-06-02T04:30:00Z,30.3085,-88.1395,0.0,5.02,357.5,-9999.0,'1111122,1111122,1111122' 
DISL,ioos:station:DISL:CATA:1,2011-06-02T05:00:00Z,30.3085,-88.1395,0.0,3.84,8.08,-9999.0,'1111122,1111122,1111122' 
DISL,ioos:station:DISL:CATA:1,2011-06-02T05:30:00Z,30.3085,-88.1395,0.0,3.57,7.69,-9999.0,'1111122,1111122,1111122' 
DISL,ioos:station:DISL:CATA:1,2011-06-02T06:00:00Z,30.3085,-88.1395,0.0,4.29,10.74,-9999.0,'1111122,1111122,1111122' 
DISL,ioos:station:DISL:CATA:1,2011-06-02T06:30:00Z,30.3085,-88.1395,0.0,4.65,15.73,-9999.0,'1111122,1111122,1111122' 
DISL,ioos:station:DISL:CATA:1,2011-06-02T07:00:00Z,30.3085,-88.1395,0.0,5.84,21.47,-9999.0,'1111122,1111122,1111122' 
DISL,ioos:station:DISL:CATA:1,2011-06-02T07:30:00Z,30.3085,-88.1395,0.0,7.0,32.6,-9999.0,'1111122,1111122,1111122' 
DISL,ioos:station:DISL:CATA:1,2011-06-02T08:00:00Z,30.3085,-88.1395,0.0,6.15,46.1,-9999.0,'1111122,1111122,1111122' 
DISL,ioos:station:DISL:CATA:1,2011-06-02T08:30:00Z,30.3085,-88.1395,0.0,6.56,69.55,-9999.0,'1111122,1111122,1111122' 
DISL,ioos:station:DISL:CATA:1,2011-06-02T09:00:00Z,30.3085,-88.1395,0.0,8.57,92.8,-9999.0,'1111122,1111122,1111122' 
DISL,ioos:station:DISL:CATA:1,2011-06-02T09:30:00Z,30.3085,-88.1395,0.0,9.73,137.9,-9999.0,'1111122,1111122,1111122' 
DISL,ioos:station:DISL:CATA:1,2011-06-02T10:00:00Z,30.3085,-88.1395,0.0,8.87,147.2,-9999.0,'1111122,1111122,1111122' 
DISL,ioos:station:DISL:CATA:1,2011-06-02T10:30:00Z,30.3085,-88.1395,0.0,8.71,159.4,-9999.0,'1111122,1111122,1111122' 
DISL,ioos:station:DISL:CATA:1,2011-06-02T11:00:00Z,30.3085,-88.1395,0.0,8.49,159.7,-9999.0,'1111122,1111122,1111122' 
DISL,ioos:station:DISL:CATA:1,2011-06-02T11:30:00Z,30.3085,-88.1395,0.0,7.86,165.8,-9999.0,'1111122,1111122,1111122' 
DISL,ioos:station:DISL:CATA:1,2011-06-02T12:00:00Z,30.3085,-88.1395,0.0,7.77,178.2,-9999.0,'1111122,1111122,1111122' 
DISL,ioos:station:DISL:CATA:1,2011-06-02T12:30:00Z,30.3085,-88.1395,0.0,6.49,185.1,-9999.0,'1111122,1111122,1111122' 
DISL,ioos:station:DISL:CATA:1,2011-06-02T13:00:00Z,30.3085,-88.1395,0.0,5.02,182.0,-9999.0,'1111122,1111122,1111122' 
DISL,ioos:station:DISL:CATA:1,2011-06-02T13:30:00Z,30.3085,-88.1395,0.0,3.65,183.8,-9999.0,'1111122,1111122,1111122' 
DISL,ioos:station:DISL:CATA:1,2011-06-02T14:00:00Z,30.3085,-88.1395,0.0,2.53,145.1,-9999.0,'1111122,1111122,1111122' 
DISL,ioos:station:DISL:CATA:1,2011-06-02T14:30:00Z,30.3085,-88.1395,0.0,3.59,139.4,-9999.0,'1111122,1111122,1111122' 
DISL,ioos:station:DISL:CATA:1,2011-06-02T15:00:00Z,30.3085,-88.1395,0.0,3.07,130.3,-9999.0,'1111122,1111122,1111122' 
DISL,ioos:station:DISL:CATA:1,2011-06-02T15:30:00Z,30.3085,-88.1395,0.0,3.08,129.0,-9999.0,'1111122,1111122,1111122' 
DISL,ioos:station:DISL:CATA:1,2011-06-02T16:00:00Z,30.3085,-88.1395,0.0,2.85,127.1,-9999.0,'1111122,1111122,1111122' 
DISL,ioos:station:DISL:CATA:1,2011-06-02T16:30:00Z,30.3085,-88.1395,0.0,3.26,136.5,-9999.0,'1111122,1111122,1111122' 
DISL,ioos:station:DISL:CATA:1,2011-06-02T17:00:00Z,30.3085,-88.1395,0.0,3.08,139.7,-9999.0,'1111122,1111122,1111122' 
DISL,ioos:station:DISL:CATA:1,2011-06-02T17:30:00Z,30.3085,-88.1395,0.0,3.05,132.9,-9999.0,'1111122,1111122,1111122' 
DISL,ioos:station:DISL:CATA:1,2011-06-02T18:00:00Z,30.3085,-88.1395,0.0,4.1,129.4,-9999.0,'1111122,1111122,1111122' 
DISL,ioos:station:DISL:CATA:1,2011-06-02T18:30:00Z,30.3085,-88.1395,0.0,4.39,131.0,-9999.0,'1111122,1111122,1111122' 
DISL,ioos:station:DISL:CATA:1,2011-06-02T19:00:00Z,30.3085,-88.1395,0.0,4.12,141.5,-9999.0,'1111122,1111122,1111122' 
DISL,ioos:station:DISL:CATA:1,2011-06-02T19:30:00Z,30.3085,-88.1395,0.0,3.77,127.8,-9999.0,'1111122,1111122,1111122' 
DISL,ioos:station:DISL:CATA:1,2011-06-02T20:00:00Z,30.3085,-88.1395,0.0,5.09,137.1,-9999.0,'1111122,1111122,1111122' 
DISL,ioos:station:DISL:CATA:1,2011-06-02T20:30:00Z,30.3085,-88.1395,0.0,5.42,149.0,-9999.0,'1111122,1111122,1111122' 
DISL,ioos:station:DISL:CATA:1,2011-06-02T21:00:00Z,30.3085,-88.1395,0.0,7.04,159.8,-9999.0,'1111122,1111122,1111122' 
DISL,ioos:station:DISL:CATA:1,2011-06-02T21:30:00Z,30.3085,-88.1395,0.0,5.14,150.7,-9999.0,'1111122,1111122,1111122' 
DISL,ioos:station:DISL:CATA:1,2011-06-02T22:00:00Z,30.3085,-88.1395,0.0,5.33,168.5,-9999.0,'1111122,1111122,1111122' 
DISL,ioos:station:DISL:CATA:1,2011-06-02T22:30:00Z,30.3085,-88.1395,0.0,5.85,171.6,-9999.0,'1111122,1111122,1111122' 
DISL,ioos:station:DISL:CATA:1,2011-06-02T23:00:00Z,30.3085,-88.1395,0.0,6.09,177.3,-9999.0,'1111122,1111122,1111122' 
DISL,ioos:station:DISL:CATA:1,2011-06-02T23:30:00Z,30.3085,-88.1395,0.0,6.51,175.3,-9999.0,'1111122,1111122,1111122' 
DISL,ioos:station:DISL:CATA:1,2011-06-03T00:00:00Z,30.3085,-88.1395,0.0,5.97,171.3,-9999.0,'1111122,1111122,1111122' 
DISL,ioos:station:DISL:CATA:1,2011-06-03T00:30:00Z,30.3085,-88.1395,0.0,5.71,182.3,-9999.0,'1111122,1111122,1111122' 
DISL,ioos:station:DISL:CATA:1,2011-06-03T01:00:00Z,30.3085,-88.1395,0.0,5.29,181.1,-9999.0,'1111122,1111122,1111122' 
DISL,ioos:station:DISL:CATA:1,2011-06-03T01:30:00Z,30.3085,-88.1395,0.0,3.94,193.3,-9999.0,'1111122,1111122,1111122' 
DISL,ioos:station:DISL:CATA:1,2011-06-03T02:00:00Z,30.3085,-88.1395,0.0,4.85,184.3,-9999.0,'1111122,1111122,1111122' 
DISL,ioos:station:DISL:CATA:1,2011-06-03T02:30:00Z,30.3085,-88.1395,0.0,4.59,184.8,-9999.0,'1111122,1111122,1111122' 
DISL,ioos:station:DISL:CATA:1,2011-06-03T03:00:00Z,30.3085,-88.1395,0.0,4.65,181.8,-9999.0,'1111122,1111122,1111122' 
DISL,ioos:station:DISL:CATA:1,2011-06-03T03:30:00Z,30.3085,-88.1395,0.0,5.09,178.7,-9999.0,'1111122,1111122,1111122' 
DISL,ioos:station:DISL:CATA:1,2011-06-03T04:00:00Z,30.3085,-88.1395,0.0,4.78,189.0,-9999.0,'1111122,1111122,1111122' 
DISL,ioos:station:DISL:CATA:1,2011-06-03T04:30:00Z,30.3085,-88.1395,0.0,5.31,186.9,-9999.0,'1111122,1111122,1111122' 
DISL,ioos:station:DISL:CATA:1,2011-06-03T05:00:00Z,30.3085,-88.1395,0.0,4.76,188.6,-9999.0,'1111122,1111122,1111122' 
DISL,ioos:station:DISL:CATA:1,2011-06-03T05:30:00Z,30.3085,-88.1395,0.0,5.56,187.6,-9999.0,'1111122,1111122,1111122' 
DISL,ioos:station:DISL:CATA:1,2011-06-03T06:00:00Z,30.3085,-88.1395,0.0,4.48,185.1,-9999.0,'1111122,1111122,1111122' 
DISL,ioos:station:DISL:CATA:1,2011-06-03T06:30:00Z,30.3085,-88.1395,0.0,3.82,198.4,-9999.0,'1111122,1111122,1111122' 
DISL,ioos:station:DISL:CATA:1,2011-06-03T07:00:00Z,30.3085,-88.1395,0.0,2.16,233.5,-9999.0,'1111122,1111122,1111122' 
DISL,ioos:station:DISL:CATA:1,2011-06-03T07:30:00Z,30.3085,-88.1395,0.0,2.61,218.9,-9999.0,'1111122,1111122,1111122' 
DISL,ioos:station:DISL:CATA:1,2011-06-03T08:00:00Z,30.3085,-88.1395,0.0,2.69,211.2,-9999.0,'1111122,1111122,1111122' 
DISL,ioos:station:DISL:CATA:1,2011-06-03T08:30:00Z,30.3085,-88.1395,0.0,1.83,228.4,-9999.0,'1111122,1111122,1111122' 
DISL,ioos:station:DISL:CATA:1,2011-06-03T09:00:00Z,30.3085,-88.1395,0.0,2.08,211.1,-9999.0,'1111122,1111122,1111122' 
DISL,ioos:station:DISL:CATA:1,2011-06-03T09:30:00Z,30.3085,-88.1395,0.0,0.04,269.1,-9999.0,'1111122,1111122,1111122' 
DISL,ioos:station:DISL:CATA:1,2011-06-03T10:00:00Z,30.3085,-88.1395,0.0,2.0,9.73,-9999.0,'1111122,1111122,1111122' 
DISL,ioos:station:DISL:CATA:1,2011-06-03T10:30:00Z,30.3085,-88.1395,0.0,2.38,5.529,-9999.0,'1111122,1111122,1111122' 
DISL,ioos:station:DISL:CATA:1,2011-06-03T11:00:00Z,30.3085,-88.1395,0.0,2.27,0.865,-9999.0,'1111122,1111122,1111122' 
DISL,ioos:station:DISL:CATA:1,2011-06-03T11:30:00Z,30.3085,-88.1395,0.0,2.34,0.759,-9999.0,'1111122,1111122,1111122' 
DISL,ioos:station:DISL:CATA:1,2011-06-03T12:00:00Z,30.3085,-88.1395,0.0,2.0,9.43,-9999.0,'1111122,1111122,1111122' 
DISL,ioos:station:DISL:CATA:1,2011-06-03T12:30:00Z,30.3085,-88.1395,0.0,0.89,349.0,-9999.0,'1111122,1111122,1111122' 
DISL,ioos:station:DISL:CATA:1,2011-06-03T13:00:00Z,30.3085,-88.1395,0.0,0.88,44.39,-9999.0,'1111122,1111122,1111122' 
DISL,ioos:station:DISL:CATA:1,2011-06-03T13:30:00Z,30.3085,-88.1395,0.0,1.24,43.02,-9999.0,'1111122,1111122,1111122' 
DISL,ioos:station:DISL:CATA:1,2011-06-03T14:00:00Z,30.3085,-88.1395,0.0,1.13,61.26,-9999.0,'1111122,1111122,1111122' 
DISL,ioos:station:DISL:CATA:1,2011-06-03T14:30:00Z,30.3085,-88.1395,0.0,0.95,65.82,-9999.0,'1111122,1111122,1111122' 
DISL,ioos:station:DISL:CATA:1,2011-06-03T15:00:00Z,30.3085,-88.1395,0.0,1.36,66.08,-9999.0,'1111122,1111122,1111122' 
DISL,ioos:station:DISL:CATA:1,2011-06-03T15:30:00Z,30.3085,-88.1395,0.0,1.0,80.2,-9999.0,'1111122,1111122,1111122' 
DISL,ioos:station:DISL:CATA:1,2011-06-03T16:00:00Z,30.3085,-88.1395,0.0,0.69,59.41,-9999.0,'1111122,1111122,1111122' 
DISL,ioos:station:DISL:CATA:1,2011-06-03T16:30:00Z,30.3085,-88.1395,0.0,1.18,105.9,-9999.0,'1111122,1111122,1111122' 
DISL,ioos:station:DISL:CATA:1,2011-06-03T17:00:00Z,30.3085,-88.1395,0.0,1.03,140.1,-9999.0,'1111122,1111122,1111122' 
DISL,ioos:station:DISL:CATA:1,2011-06-03T17:30:00Z,30.3085,-88.1395,0.0,1.82,155.3,-9999.0,'1111122,1111122,1111122' 
DISL,ioos:station:DISL:CATA:1,2011-06-03T18:00:00Z,30.3085,-88.1395,0.0,1.86,169.5,-9999.0,'1111122,1111122,1111122' 
DISL,ioos:station:DISL:CATA:1,2011-06-03T18:30:00Z,30.3085,-88.1395,0.0,3.14,212.3,-9999.0,'1111122,1111122,1111122' 
DISL,ioos:station:DISL:CATA:1,2011-06-03T19:00:00Z,30.3085,-88.1395,0.0,4.08,217.0,-9999.0,'1111122,1111122,1111122' 
DISL,ioos:station:DISL:CATA:1,2011-06-03T19:30:00Z,30.3085,-88.1395,0.0,4.95,215.0,-9999.0,'1111122,1111122,1111122' 
DISL,ioos:station:DISL:CATA:1,2011-06-03T20:00:00Z,30.3085,-88.1395,0.0,4.92,218.4,-9999.0,'1111122,1111122,1111122' 
DISL,ioos:station:DISL:CATA:1,2011-06-03T20:30:00Z,30.3085,-88.1395,0.0,5.49,211.3,-9999.0,'1111122,1111122,1111122' 
DISL,ioos:station:DISL:CATA:1,2011-06-03T21:00:00Z,30.3085,-88.1395,0.0,5.41,216.9,-9999.0,'1111122,1111122,1111122' 
DISL,ioos:station:DISL:CATA:1,2011-06-03T21:30:00Z,30.3085,-88.1395,0.0,6.24,223.6,-9999.0,'1111122,1111122,1111122' 
DISL,ioos:station:DISL:CATA:1,2011-06-03T22:00:00Z,30.3085,-88.1395,0.0,6.02,229.1,-9999.0,'1111122,1111122,1111122' 
DISL,ioos:station:DISL:CATA:1,2011-06-03T22:30:00Z,30.3085,-88.1395,0.0,6.29,230.6,-9999.0,'1111122,1111122,1111122' 
DISL,ioos:station:DISL:CATA:1,2011-06-03T23:00:00Z,30.3085,-88.1395,0.0,6.39,229.2,-9999.0,'1111122,1111122,1111122' 
DISL,ioos:station:DISL:CATA:1,2011-06-03T23:30:00Z,30.3085,-88.1395,0.0,6.44,228.9,-9999.0,'1111122,1111122,1111122' 
DISL,ioos:station:DISL:CATA:1,2011-06-04T00:00:00Z,30.3085,-88.1395,0.0,6.46,230.7,-9999.0,'1111122,1111122,1111122' 
DISL,ioos:station:DISL:CATA:1,2011-06-04T00:30:00Z,30.3085,-88.1395,0.0,5.48,238.5,-9999.0,'1111122,1111122,1111122' 
DISL,ioos:station:DISL:CATA:1,2011-06-04T01:00:00Z,30.3085,-88.1395,0.0,3.14,280.0,-9999.0,'1111122,1111122,1111122' 
DISL,ioos:station:DISL:CATA:1,2011-06-04T01:30:00Z,30.3085,-88.1395,0.0,4.39,256.2,-9999.0,'1111122,1111122,1111122' 
DISL,ioos:station:DISL:CATA:1,2011-06-04T02:00:00Z,30.3085,-88.1395,0.0,5.45,259.2,-9999.0,'1111122,1111122,1111122' 
DISL,ioos:station:DISL:CATA:1,2011-06-04T02:30:00Z,30.3085,-88.1395,0.0,5.77,257.7,-9999.0,'1111122,1111122,1111122' 
DISL,ioos:station:DISL:CATA:1,2011-06-04T03:00:00Z,30.3085,-88.1395,0.0,5.59,261.0,-9999.0,'1111122,1111122,1111122' 
DISL,ioos:station:DISL:CATA:1,2011-06-04T03:30:00Z,30.3085,-88.1395,0.0,4.29,171.2,-9999.0,'1111122,1111122,1111122' 
DISL,ioos:station:DISL:CATA:1,2011-06-04T04:00:00Z,30.3085,-88.1395,0.0,5.96,223.8,-9999.0,'1111122,1111122,1111122' 
DISL,ioos:station:DISL:CATA:1,2011-06-04T04:30:00Z,30.3085,-88.1395,0.0,6.04,270.6,-9999.0,'1111122,1111122,1111122' 
DISL,ioos:station:DISL:CATA:1,2011-06-04T05:00:00Z,30.3085,-88.1395,0.0,5.35,261.0,-9999.0,'1111122,1111122,1111122' 
DISL,ioos:station:DISL:CATA:1,2011-06-04T05:30:00Z,30.3085,-88.1395,0.0,4.86,264.1,-9999.0,'1111122,1111122,1111122' 
DISL,ioos:station:DISL:CATA:1,2011-06-04T06:00:00Z,30.3085,-88.1395,0.0,4.72,255.9,-9999.0,'1111122,1111122,1111122' 
DISL,ioos:station:DISL:CATA:1,2011-06-04T06:30:00Z,30.3085,-88.1395,0.0,4.07,249.2,-9999.0,'1111122,1111122,1111122' 
DISL,ioos:station:DISL:CATA:1,2011-06-04T07:00:00Z,30.3085,-88.1395,0.0,3.12,260.1,-9999.0,'1111122,1111122,1111122' 
DISL,ioos:station:DISL:CATA:1,2011-06-04T07:30:00Z,30.3085,-88.1395,0.0,4.34,278.2,-9999.0,'1111122,1111122,1111122' 
DISL,ioos:station:DISL:CATA:1,2011-06-04T08:00:00Z,30.3085,-88.1395,0.0,5.11,286.3,-9999.0,'1111122,1111122,1111122' 
DISL,ioos:station:DISL:CATA:1,2011-06-04T08:30:00Z,30.3085,-88.1395,0.0,5.02,297.0,-9999.0,'1111122,1111122,1111122' 
DISL,ioos:station:DISL:CATA:1,2011-06-04T09:00:00Z,30.3085,-88.1395,0.0,5.26,298.7,-9999.0,'1111122,1111122,1111122' 
DISL,ioos:station:DISL:CATA:1,2011-06-04T09:30:00Z,30.3085,-88.1395,0.0,3.53,305.6,-9999.0,'1111122,1111122,1111122' 
DISL,ioos:station:DISL:CATA:1,2011-06-04T10:00:00Z,30.3085,-88.1395,0.0,4.56,312.3,-9999.0,'1111122,1111122,1111122' 
DISL,ioos:station:DISL:CATA:1,2011-06-04T10:30:00Z,30.3085,-88.1395,0.0,4.13,323.0,-9999.0,'1111122,1111122,1111122' 
DISL,ioos:station:DISL:CATA:1,2011-06-04T11:00:00Z,30.3085,-88.1395,0.0,3.07,321.8,-9999.0,'1111122,1111122,1111122' 
DISL,ioos:station:DISL:CATA:1,2011-06-04T11:30:00Z,30.3085,-88.1395,0.0,4.09,314.9,-9999.0,'1111122,1111122,1111122' 
DISL,ioos:station:DISL:CATA:1,2011-06-04T12:00:00Z,30.3085,-88.1395,0.0,4.02,318.4,-9999.0,'1111122,1111122,1111122' 
DISL,ioos:station:DISL:CATA:1,2011-06-04T12:30:00Z,30.3085,-88.1395,0.0,4.89,319.4,-9999.0,'1111122,1111122,1111122' 
DISL,ioos:station:DISL:CATA:1,2011-06-04T13:00:00Z,30.3085,-88.1395,0.0,5.36,306.5,-9999.0,'1111122,1111122,1111122' 
DISL,ioos:station:DISL:CATA:1,2011-06-04T13:30:00Z,30.3085,-88.1395,0.0,5.27,302.9,-9999.0,'1111122,1111122,1111122' 
DISL,ioos:station:DISL:CATA:1,2011-06-04T14:00:00Z,30.3085,-88.1395,0.0,7.02,311.0,-9999.0,'1111122,1111122,1111122' 
DISL,ioos:station:DISL:CATA:1,2011-06-04T14:30:00Z,30.3085,-88.1395,0.0,4.84,331.2,-9999.0,'1111122,1111122,1111122' 
DISL,ioos:station:DISL:CATA:1,2011-06-04T15:00:00Z,30.3085,-88.1395,0.0,3.23,330.5,-9999.0,'1111122,1111122,1111122' 
DISL,ioos:station:DISL:CATA:1,2011-06-04T15:30:00Z,30.3085,-88.1395,0.0,2.49,329.7,-9999.0,'1111122,1111122,1111122' 
DISL,ioos:station:DISL:CATA:1,2011-06-04T16:00:00Z,30.3085,-88.1395,0.0,1.97,89.5,-9999.0,'1111122,1111122,1111122' 
DISL,ioos:station:DISL:CATA:1,2011-06-04T16:30:00Z,30.3085,-88.1395,0.0,1.62,102.4,-9999.0,'1111122,1111122,1111122' 
DISL,ioos:station:DISL:CATA:1,2011-06-04T17:00:00Z,30.3085,-88.1395,0.0,1.93,89.8,-9999.0,'1111122,1111122,1111122' 
DISL,ioos:station:DISL:CATA:1,2011-06-04T17:30:00Z,30.3085,-88.1395,0.0,2.32,151.6,-9999.0,'1111122,1111122,1111122' 
DISL,ioos:station:DISL:CATA:1,2011-06-04T18:00:00Z,30.3085,-88.1395,0.0,2.65,191.7,-9999.0,'1111122,1111122,1111122' 
DISL,ioos:station:DISL:CATA:1,2011-06-04T18:30:00Z,30.3085,-88.1395,0.0,3.97,245.0,-9999.0,'1111122,1111122,1111122' 
DISL,ioos:station:DISL:CATA:1,2011-06-04T19:00:00Z,30.3085,-88.1395,0.0,3.93,228.5,-9999.0,'1111122,1111122,1111122' 
DISL,ioos:station:DISL:CATA:1,2011-06-04T19:30:00Z,30.3085,-88.1395,0.0,3.66,252.0,-9999.0,'1111122,1111122,1111122' 
DISL,ioos:station:DISL:CATA:1,2011-06-04T20:00:00Z,30.3085,-88.1395,0.0,1.79,315.3,-9999.0,'1111122,1111122,1111122' 
DISL,ioos:station:DISL:CATA:1,2011-06-04T20:30:00Z,30.3085,-88.1395,0.0,1.48,227.9,-9999.0,'1111122,1111122,1111122' 
DISL,ioos:station:DISL:CATA:1,2011-06-04T21:00:00Z,30.3085,-88.1395,0.0,4.3,246.8,-9999.0,'1111122,1111122,1111122' 
DISL,ioos:station:DISL:CATA:1,2011-06-04T21:30:00Z,30.3085,-88.1395,0.0,5.72,254.8,-9999.0,'1111122,1111122,1111122' 
DISL,ioos:station:DISL:CATA:1,2011-06-04T22:00:00Z,30.3085,-88.1395,0.0,4.3,262.9,-9999.0,'1111122,1111122,1111122' 
DISL,ioos:station:DISL:CATA:1,2011-06-04T22:30:00Z,30.3085,-88.1395,0.0,4.93,260.1,-9999.0,'1111122,1111122,1111122' 
DISL,ioos:station:DISL:CATA:1,2011-06-04T23:00:00Z,30.3085,-88.1395,0.0,1.31,151.1,-9999.0,'1111122,1111122,1111122' 
DISL,ioos:station:DISL:CATA:1,2011-06-04T23:30:00Z,30.3085,-88.1395,0.0,5.59,16.68,-9999.0,'1111122,1111122,1111122' 
DISL,ioos:station:DISL:CATA:1,2011-06-05T00:00:00Z,30.3085,-88.1395,0.0,3.19,229.8,-9999.0,'1111122,1111122,1111122' 
DISL,ioos:station:DISL:CATA:1,2011-06-05T00:30:00Z,30.3085,-88.1395,0.0,5.92,217.2,-9999.0,'1111122,1111122,1111122' 
DISL,ioos:station:DISL:CATA:1,2011-06-05T01:00:00Z,30.3085,-88.1395,0.0,2.47,262.6,-9999.0,'1111122,1111122,1111122' 
DISL,ioos:station:DISL:CATA:1,2011-06-05T01:30:00Z,30.3085,-88.1395,0.0,1.55,232.9,-9999.0,'1111122,1111122,1111122' 
DISL,ioos:station:DISL:CATA:1,2011-06-05T02:00:00Z,30.3085,-88.1395,0.0,2.31,10.87,-9999.0,'1111122,1111122,1111122' 
DISL,ioos:station:DISL:CATA:1,2011-06-05T02:30:00Z,30.3085,-88.1395,0.0,4.54,32.63,-9999.0,'1111122,1111122,1111122' 
DISL,ioos:station:DISL:CATA:1,2011-06-05T03:00:00Z,30.3085,-88.1395,0.0,5.02,28.13,-9999.0,'1111122,1111122,1111122' 
DISL,ioos:station:DISL:CATA:1,2011-06-05T03:30:00Z,30.3085,-88.1395,0.0,3.28,21.22,-9999.0,'1111122,1111122,1111122' 
DISL,ioos:station:DISL:CATA:1,2011-06-05T04:00:00Z,30.3085,-88.1395,0.0,3.91,36.93,-9999.0,'1111122,1111122,1111122' 
DISL,ioos:station:DISL:CATA:1,2011-06-05T04:30:00Z,30.3085,-88.1395,0.0,3.93,50.16,-9999.0,'1111122,1111122,1111122' 